Torna al catalogo

NOAA 16 DEB

AttivoPO
NORAD 41526·DEBRIS·🇺🇸 United States

Lanciato Sep 21, 2000 da Vandenberg Space Force Base

Loading…

Prossimi Passaggi (prossime 24 ore)

TLE

AggiornatoSource: Space-Track

Epoca: Sep 14, 2026, 01:13 UTC

1 41526U 00055NA  26257.05077090  .00004715  00000-0  11893-2 0  9999
2 41526  98.9913 107.3497 0017428 293.1557  66.7799 14.51505436545534

Traccia NOAA 16 DEB in tempo reale con AllMySat

Download on the App Store